Location: Haliburton Scout Reserve
(45.0900°N, 78.3200°W)
Time: 08:59:39
(UTC-04:00)

S-56A Canister/Altair - Pass Details

Date: 03 February 2023
Orbit: 639 x 2493 km, 38.9° (Epoch: 27 March)

Event Time Altitude Azimuth Distance (km) Brightness Sun altitude
Rises 16:44:37 0° 271° (W) 3,697 12.2 5.3°
Reaches altitude 10° 16:47:28 10° 257° (WSW) 2,980 12.4 4.9°
Maximum altitude 16:53:11 24° 206° (SSW) 2,540 11.1 4.0°
Drops below altitude 10° 17:00:46 10° 159° (SSE) 4,066 11.3 2.8°
Sets 17:05:31 0° 148° (SSE) 5,392 11.8 2.1°
